Weather History for KIOW - June, 2014

Change the Weather History Date:

Monday, June 9, 2014

  Actual Average Record
Temperature  
Mean Temperature 67 °F 70 °F  
Max Temperature 77 °F 80 °F 96 °F (1985)
Min Temperature 57 °F 60 °F 45 °F (1969)
Degree Days  
Heating Degree Days 0 1  
Month to date heating degree days 0 11  
Since 1 June heating degree days 0 11  
Since 1 July heating degree days 7482 6372  
Cooling Degree Days 2 6  
Month to date cooling degree days 45 45  
Year to date cooling degree days 134 106  
Since 1 June cooling degree days 45 45  
Growing Degree Days 17 (Base 50)    
Moisture  
Dew Point 53 °F    
Average Humidity 72    
Maximum Humidity 100    
Minimum Humidity 43    
Precipitation  
Precipitation T in 0.14 in 2.58 in (1966)
Month to date precipitation 1.37 1.35  
Year to date precipitation 12.42 13.44  
Sea Level Pressure  
Sea Level Pressure 29.94 in    
Wind  
Wind Speed 8 mph (ENE)    
Max Wind Speed 17 mph    
Max Gust Speed 20 mph    
Visibility 10 miles    
Events      
T = Trace of Precipitation, MM = Missing Value Source: NWS Daily Summary

Daily Weather History Graph

Daily Weather History Graph

Search for Another Location

Airport or City:

Trip Planner

Search our weather history database for the weather conditions in past years. The results will help you decide how hot, cold, wet, or windy it might be!

Date:

Astronomy

Jun. 09, 2014 Rise Set
Actual Time 5:31 AM CDT 8:39 PM CDT
Civil Twilight 4:57 AM CDT 9:13 PM CDT
Nautical Twilight 4:14 AM CDT 9:56 PM CDT
Astronomical Twilight 3:23 AM CDT 10:48 PM CDT
Moon 4:58 PM CDT (6/9) 3:02 AM CDT (6/9)
Length of Visible Light 16h 15m
Length of Day
15h 07m
Waxing Gibbous, 85% of the Moon is Illuminated
Jun 9
Waxing Gibbous
Jun 12
Full
Jun 19
Last Quarter
Jun 27
New
Jul 5
First Quarter

Hourly Weather History & Observations

Time (CDT) Temp. Dew Point Humidity Pressure Visibility Wind Dir Wind Speed Gust Speed Precip Events Conditions
12:52 AM 57.9 °F 57.0 °F 97% 30.03 in 10.0 mi Calm Calm - N/A   Mostly Cloudy
1:52 AM 60.1 °F 57.0 °F 90% 30.01 in 10.0 mi ENE 4.6 mph - N/A   Scattered Clouds
2:52 AM 60.1 °F 55.9 °F 86% 30.00 in 10.0 mi East 6.9 mph - N/A   Clear
3:52 AM 59.0 °F 51.1 °F 75% 30.00 in 10.0 mi East 4.6 mph - N/A   Clear
4:52 AM 59.0 °F 48.9 °F 69% 30.01 in 10.0 mi East 5.8 mph - N/A   Overcast
5:52 AM 59.0 °F 48.0 °F 67% 30.01 in 10.0 mi East 5.8 mph - N/A   Overcast
6:52 AM 59.0 °F 46.9 °F 64% 30.00 in 10.0 mi ENE 8.1 mph - N/A   Overcast
7:52 AM 61.0 °F 48.0 °F 62% 29.98 in 10.0 mi NE 6.9 mph - N/A   Overcast
8:52 AM 64.9 °F 46.9 °F 52% 29.99 in 10.0 mi ESE 9.2 mph - N/A   Clear
10:52 AM 72.0 °F 50.0 °F 46% 29.98 in 10.0 mi East 5.8 mph - N/A   Clear
11:52 AM 73.0 °F 52.0 °F 48% 29.99 in 10.0 mi Variable 3.5 mph - N/A   Clear
1:52 PM 75.0 °F 54.0 °F 48% 29.94 in 10.0 mi ENE 5.8 mph - N/A   Clear
2:52 PM 75.9 °F 54.0 °F 46% 29.92 in 10.0 mi ENE 6.9 mph - N/A   Clear
3:52 PM 77.0 °F 55.9 °F 48% 29.91 in 10.0 mi NNE 11.5 mph - N/A   Clear
4:52 PM 75.9 °F 55.0 °F 48% 29.89 in 10.0 mi NE 10.4 mph - N/A   Clear
5:52 PM 75.9 °F 55.0 °F 48% 29.87 in 10.0 mi ENE 9.2 mph - N/A   Clear
6:52 PM 73.9 °F 55.9 °F 53% 29.86 in 10.0 mi NNE 9.2 mph - N/A   Clear
7:52 PM 72.0 °F 55.9 °F 57% 29.87 in 10.0 mi NNE 9.2 mph - N/A   Clear
8:52 PM 72.0 °F 55.9 °F 57% 29.87 in 10.0 mi NNE 10.4 mph - N/A   Scattered Clouds
9:52 PM 70.0 °F 55.9 °F 61% 29.88 in 10.0 mi NNE 9.2 mph - N/A   Clear
10:52 PM 69.1 °F 57.0 °F 65% 29.88 in 10.0 mi NE 9.2 mph - N/A   Mostly Cloudy
11:52 PM 69.1 °F 57.0 °F 65% 29.88 in 10.0 mi NNE 11.5 mph - 0.00 in   Overcast